GW0734 Weather Reports


Display with metric or nautical units.
time (UTC)temp
F
wind
direction
speed
MPH
gust
MPH
rain 1hr
in
rain 24hr
in
rain mn
in
humidity
%
barometer
mb
20260906093107 63 0 0.0 2.0 0.00 0.00 0.00 89 1017.6
20260906091546 63 88 0.0 3.0 0.00 0.00 0.00 90 1017.5
20260906090058 63 0 0.0 4.0 0.00 0.00 0.00 90 1017.6
20260906084554 64 0 0.0 3.0 0.00 0.00 0.00 89 1017.5
20260906083050 64 92 0.0 4.0 0.00 0.00 0.00 89 1017.5
20260906081556 65 0 1.0 3.0 0.00 0.00 0.00 88 1017.4
20260906080057 65 95 1.0 6.0 0.00 0.00 0.00 87 1017.4
20260906074559 66 55 2.0 8.0 0.00 0.00 0.00 87 1017.5
20260906073049 67 109 2.0 9.0 0.00 0.00 0.00 90 1017.5
20260906071557 68 85 1.0 8.0 0.00 0.00 0.00 90 1017.5
20260906070052 69 57 0.0 4.0 0.00 0.00 0.00 91 1017.5
20260906064546 68 61 2.0 4.0 0.00 0.00 0.00 91 1017.5
20260906063057 68 0 0.0 2.0 0.00 0.00 0.00 91 1017.5
20260906061558 68 78 0.0 6.0 0.00 0.00 0.00 90 1017.3
20260906060053 68 88 1.0 4.0 0.00 0.00 0.00 90 1017.3
20260906054606 69 61 2.0 5.0 0.00 0.00 0.00 90 1017.2
20260906053056 69 46 2.0 6.0 0.00 0.00 0.00 90 1017.0
20260906051553 69 52 1.0 5.0 0.00 0.00 0.00 90 1016.6
20260906050114 69 48 0.0 7.0 0.00 0.00 0.00 90 1016.9
20260906044546 69 51 3.0 6.0 0.00 0.00 0.00 90 1016.7
20260906043054 70 53 2.0 5.0 0.00 0.00 0.00 90 1016.6
20260906041551 70 40 2.0 5.0 0.00 0.00 0.00 90 1016.5
20260906040113 70 51 1.0 5.0 0.00 0.00 0.00 90 1016.4
20260906034553 70 0 1.0 4.0 0.00 0.00 0.00 89 1016.3
20260906033102 70 37 1.0 6.0 0.00 0.00 0.00 89 1016.1
20260906031550 70 36 2.0 5.0 0.00 0.00 0.00 89 1016.0
20260906030047 71 57 2.0 4.0 0.00 0.00 0.00 89 1016.2
20260906024601 71 0 0.0 0.0 0.00 0.00 0.00 88 1016.1
20260906023057 71 0 0.0 6.0 0.00 0.00 0.00 87 1015.9
20260906021555 71 89 1.0 4.0 0.00 0.00 0.00 86 1015.9
20260906020053 72 0 0.0 6.0 0.00 0.00 0.00 86 1015.8
20260906014601 72 69 1.0 8.0 0.00 0.00 0.00 86 1015.8
20260906013048 72 67 3.0 10.0 0.00 0.00 0.00 86 1015.7
20260906011558 72 67 1.0 4.0 0.00 0.00 0.00 88 1015.5
20260906010055 72 63 1.0 6.0 0.00 0.00 0.00 89 1015.2
20260906004602 73 65 2.0 10.0 0.00 0.00 0.00 88 1015.0
20260906003058 73 57 3.0 13.0 0.00 0.00 0.00 88 1014.9
20260906001554 74 26 5.0 12.0 0.00 0.00 0.00 87 1014.8
20260906000053 75 70 6.0 14.0 0.00 0.00 0.00 86 1014.5
20260905234612 76 49 7.0 14.0 0.00 0.00 0.00 84 1014.5
20260905233050 77 58 6.0 13.0 0.00 0.00 0.00 82 1014.4
20260905231555 78 32 8.0 13.0 0.00 0.00 0.00 80 1014.2
20260905230128 79 31 4.0 9.0 0.00 0.00 0.00 80 1014.1
20260905224554 79 39 5.0 16.0 0.00 0.00 0.00 78 1013.9
20260905223050 80 34 5.0 12.0 0.00 0.00 0.00 79 1013.6
20260905221556 80 63 4.0 14.0 0.00 0.00 0.00 78 1013.5
20260905220053 80 50 4.0 14.0 0.00 0.00 0.00 81 1013.4
20260905214558 80 23 8.0 13.0 0.00 0.00 0.00 79 1013.4
20260905213053 81 42 7.0 15.0 0.00 0.00 0.00 78 1013.1
20260905211558 82 40 6.0 13.0 0.00 0.00 0.00 78 1013.3
20260905210050 82 28 5.0 13.0 0.00 0.00 0.00 77 1013.3
20260905204556 81 49 5.0 12.0 0.00 0.00 0.00 79 1013.3
20260905203058 81 66 7.0 13.0 0.00 0.00 0.00 81 1013.3
20260905201554 80 51 3.0 7.0 0.00 0.00 0.00 82 1013.5
20260905200057 82 78 5.0 14.0 0.00 0.00 0.00 78 1013.6
20260905194548 83 348 2.0 5.0 0.00 0.00 0.00 77 1013.5
20260905193110 83 238 0.0 4.0 0.00 0.00 0.00 77 1013.5
20260905191550 83 352 3.0 6.0 0.00 0.00 0.00 78 1013.7
20260905190053 82 308 3.0 8.0 0.00 0.00 0.00 79 1013.9
20260905184551 81 246 0.0 3.0 0.00 0.00 0.00 81 1014.0
20260905183059 81 200 0.0 4.0 0.00 0.00 0.00 83 1014.2
20260905181549 80 279 0.0 3.0 0.00 0.00 0.00 83 1014.3
20260905174600 79 0 0.0 2.0 0.00 0.00 0.00 82 1014.3
20260905173048 79 315 1.0 3.0 0.00 0.00 0.00 83 1014.4
20260905171602 79 243 1.0 4.0 0.00 0.00 0.00 82 1014.6
20260905170054 79 300 1.0 5.0 0.00 0.00 0.00 82 1014.7
20260905164553 78 0 1.0 4.0 0.00 0.00 0.00 83 1014.7
20260905163100 77 221 3.0 7.0 0.00 0.00 0.00 83 1014.7
20260905161556 77 262 3.0 6.0 0.00 0.00 0.00 84 1014.9
20260905160055 77 224 1.0 6.0 0.00 0.00 0.00 85 1014.9
20260905154606 76 259 0.0 3.0 0.00 0.00 0.00 84 1015.0
20260905153056 76 0 0.0 3.0 0.00 0.00 0.00 83 1014.8
20260905151552 76 0 0.0 4.0 0.00 0.00 0.00 85 1014.8
20260905150053 75 174 1.0 5.0 0.00 0.00 0.00 86 1014.9
20260905144558 75 177 0.0 3.0 0.00 0.00 0.00 86 1014.7
20260905143055 75 0 0.0 2.0 0.00 0.00 0.00 86 1014.6
20260905141547 74 0 0.0 0.0 0.00 0.00 0.00 86 1014.6
20260905140100 74 0 0.0 1.0 0.00 0.00 0.00 86 1014.7
20260905134552 74 0 0.0 1.0 0.00 0.00 0.00 88 1014.6
20260905133100 73 0 1.0 6.0 0.00 0.00 0.00 88 1014.3
20260905131557 73 207 4.0 7.0 0.00 0.00 0.00 88 1014.0
20260905130053 73 200 3.0 10.0 0.00 0.00 0.00 89 1013.9
20260905124554 72 190 4.0 8.0 0.00 0.00 0.00 89 1013.8
20260905123102 72 149 2.0 8.0 0.00 0.00 0.00 89 1013.9
20260905121601 72 165 2.0 8.0 0.00 0.00 0.00 89 1014.0
20260905120054 72 175 5.0 8.0 0.00 0.00 0.00 89 1013.8
20260905114549 72 144 4.0 10.0 0.00 0.00 0.00 89 1013.7
20260905113104 72 167 5.0 9.0 0.00 0.00 0.00 89 1013.4
20260905111551 72 182 4.0 10.0 0.00 0.00 0.00 89 1013.4
20260905110052 71 165 5.0 9.0 0.00 0.00 0.00 89 1013.3
20260905104548 71 169 2.0 6.0 0.00 0.00 0.00 89 1013.3
20260905103059 71 167 4.0 7.0 0.00 0.00 0.00 89 1013.3
20260905101554 71 197 3.0 7.0 0.00 0.00 0.00 88 1013.2
20260905100057 71 182 3.0 6.0 0.00 0.00 0.00 88 1013.3
20260905094550 72 0 2.0 5.0 0.00 0.00 0.00 88 1013.3